EW7004 Weather Reports


Display with metric or nautical units.
time (UTC)temp
F
wind
direction
speed
MPH
gust
MPH
rain 1hr
in
rain 24hr
in
rain mn
in
humidity
%
barometer
mb
20260906183404 67 305 3.0 3.0 0.04 0.07 0.07 83 1033.3
20260906182404 67 336 0.0 0.0 0.04 0.07 0.07 81 1033.2
20260906181904 67 336 1.0 2.0 0.03 0.06 0.06 80 1033.1
20260906181403 67 336 2.0 5.0 0.03 0.06 0.06 79 1033.1
20260906180904 68 325 5.0 8.0 0.02 0.05 0.05 78 1033.2
20260906180404 69 303 6.0 9.0 0.02 0.05 0.05 78 1033.2
20260906175904 70 314 5.0 9.0 0.02 0.05 0.05 78 1033.1
20260906175403 71 303 3.0 8.0 0.01 0.04 0.04 79 1032.9
20260906174904 71 317 3.0 5.0 0.01 0.04 0.04 81 1032.8
20260906174403 71 295 3.0 5.0 0.00 0.03 0.03 80 1032.8
20260906173903 71 271 0.0 0.0 0.00 0.03 0.03 79 1032.7
20260906173404 71 271 0.0 0.0 0.00 0.03 0.03 79 1032.6
20260906172904 71 271 0.0 0.0 0.00 0.03 0.03 79 1032.4
20260906172403 71 271 0.0 0.0 0.00 0.03 0.03 79 1032.3
20260906171903 70 271 0.0 0.0 0.00 0.03 0.03 79 1032.1
20260906171403 70 271 0.0 0.0 0.00 0.03 0.03 78 1031.9
20260906170903 70 271 0.0 0.0 0.01 0.03 0.03 78 1031.8
20260906170403 70 271 0.0 0.0 0.01 0.03 0.03 78 1031.8
20260906165904 70 271 0.0 0.0 0.01 0.03 0.03 78 1031.8
20260906165403 70 271 1.0 3.0 0.01 0.03 0.03 78 1031.8
20260906164903 69 271 1.0 3.0 0.01 0.03 0.03 78 1031.8
20260906164403 69 271 2.0 3.0 0.01 0.03 0.03 78 1031.6
20260906163903 70 271 3.0 6.0 0.01 0.03 0.03 78 1031.5
20260906163403 70 260 3.0 3.0 0.01 0.03 0.03 80 1031.5
20260906162903 70 311 0.0 0.0 0.02 0.03 0.03 80 1031.4
20260906162403 70 311 0.0 0.0 0.02 0.03 0.03 80 1031.3
20260906161903 70 311 0.0 0.0 0.02 0.03 0.03 80 1031.4
20260906161403 70 311 0.0 0.0 0.02 0.03 0.03 80 1031.4
20260906160903 69 311 0.0 0.0 0.01 0.02 0.02 79 1031.4
20260906160404 70 311 0.0 0.0 0.01 0.02 0.02 80 1031.5
20260906155903 70 311 0.0 0.0 0.01 0.02 0.02 80 1031.5
20260906154904 69 311 0.0 0.0 0.01 0.02 0.02 80 1031.6
20260906154403 69 311 0.0 0.0 0.01 0.02 0.02 80 1031.5
20260906152903 69 299 1.0 3.0 0.00 0.01 0.01 79 1031.6
20260906152404 69 288 3.0 6.0 0.00 0.01 0.01 79 1031.6
20260906151403 70 289 3.0 7.0 0.00 0.01 0.01 79 1031.6
20260906150903 70 292 2.0 5.0 0.00 0.01 0.01 78 1031.6
20260906150403 70 308 3.0 6.0 0.00 0.01 0.01 78 1031.5
20260906145903 70 301 2.0 6.0 0.00 0.01 0.01 77 1031.4
20260906144403 70 335 2.0 5.0 0.00 0.01 0.01 77 1031.3
20260906143903 70 359 2.0 3.0 0.00 0.01 0.01 77 1031.2
20260906143404 70 315 1.0 3.0 0.00 0.01 0.01 77 1031.2
20260906142903 70 315 0.0 0.0 0.00 0.01 0.01 78 1031.1
20260906141903 69 315 0.0 0.0 0.00 0.01 0.01 77 1030.9
20260906141403 69 315 0.0 0.0 0.00 0.01 0.01 77 1030.8
20260906140903 69 315 0.0 3.0 0.00 0.01 0.01 77 1030.7
20260906140403 70 335 2.0 5.0 0.00 0.01 0.01 78 1030.5
20260906135403 70 294 0.0 3.0 0.00 0.01 0.01 80 1030.2
20260906134903 70 297 0.0 1.0 0.00 0.01 0.01 81 1030.1
20260906134403 70 305 0.0 0.0 0.00 0.01 0.01 81 1030.0
20260906133903 70 305 1.0 3.0 0.00 0.01 0.01 81 1029.8
20260906132903 70 284 2.0 3.0 0.01 0.01 0.01 80 1029.6
20260906131904 71 281 0.0 0.0 0.01 0.01 0.01 80 1029.5
20260906130904 71 259 2.0 3.0 0.01 0.01 0.01 79 1029.3
20260906130404 71 256 3.0 6.0 0.01 0.01 0.01 78 1029.2
20260906125404 72 299 0.0 3.0 0.01 0.01 0.01 74 1029.2
20260906124403 73 349 1.0 3.0 0.01 0.01 0.01 74 1029.2
20260906123904 73 349 2.0 3.0 0.01 0.01 0.01 75 1029.4
20260906123403 73 351 2.0 3.0 0.01 0.01 0.01 74 1029.5
20260906122903 73 144 0.0 0.0 0.00 0.00 0.00 72 1029.6
20260906122404 73 149 0.0 0.0 0.00 0.00 0.00 72 1029.7
20260906121403 74 149 0.0 0.0 0.00 0.00 0.00 70 1029.5
20260906120904 74 157 0.0 1.0 0.00 0.00 0.00 69 1029.7
20260906120403 74 179 1.0 3.0 0.00 0.00 0.00 68 1029.8
20260906115904 74 147 2.0 7.0 0.00 0.00 0.00 67 1029.8
20260906115403 74 136 5.0 8.0 0.00 0.00 0.00 64 1029.7
20260906114904 75 125 3.0 6.0 0.00 0.00 0.00 61 1029.8
20260906114403 75 121 4.0 8.0 0.00 0.00 0.00 61 1030.0
20260906113403 75 127 6.0 12.0 0.00 0.00 0.00 59 1030.1
20260906112903 75 116 6.0 10.0 0.00 0.00 0.00 58 1030.1
20260906112403 75 121 7.0 10.0 0.00 0.00 0.00 58 1030.1
20260906111903 75 122 5.0 12.0 0.00 0.00 0.00 56 1030.2
20260906111404 75 101 5.0 9.0 0.00 0.00 0.00 52 1030.3
20260906110903 75 114 5.0 9.0 0.00 0.00 0.00 52 1030.3
20260906105904 75 106 3.0 3.0 0.00 0.00 0.00 47 1030.3
20260906105403 74 86 2.0 3.0 0.00 0.00 0.00 44 1030.3
20260906104903 74 97 3.0 6.0 0.00 0.00 0.00 44 1030.2
20260906104403 74 97 1.0 2.0 0.00 0.00 0.00 44 1030.2
20260906103904 74 252 0.0 0.0 0.00 0.00 0.00 44 1030.2
20260906103403 74 252 0.0 0.0 0.00 0.00 0.00 45 1030.0
20260906102903 74 262 0.0 0.0 0.00 0.00 0.00 44 1029.9
20260906102403 74 262 0.0 0.0 0.00 0.00 0.00 43 1029.8
20260906101904 74 262 0.0 0.0 0.00 0.00 0.00 43 1029.7
20260906101404 74 262 0.0 0.0 0.00 0.00 0.00 43 1029.6
20260906100904 74 262 0.0 0.0 0.00 0.00 0.00 43 1029.7
20260906100404 74 262 0.0 0.0 0.00 0.00 0.00 43 1029.7
20260906095403 74 262 0.0 0.0 0.00 0.00 0.00 44 1029.8
20260906094903 75 262 0.0 0.0 0.00 0.00 0.00 45 1029.7
20260906094403 75 262 0.0 0.0 0.00 0.00 0.00 44 1029.8
20260906093903 75 262 0.0 0.0 0.00 0.00 0.00 43 1029.8
20260906093404 75 262 0.0 0.0 0.00 0.00 0.00 42 1029.9
20260906092404 75 262 0.0 0.0 0.00 0.00 0.00 40 1030.0
20260906091903 76 262 0.0 0.0 0.00 0.00 0.00 40 1030.0
20260906091404 76 262 0.0 0.0 0.00 0.00 0.00 41 1030.1
20260906090904 76 262 0.0 0.0 0.00 0.00 0.00 42 1030.1
20260906090403 76 262 0.0 0.0 0.00 0.00 0.00 41 1030.1
20260906085903 76 262 0.0 0.0 0.00 0.00 0.00 41 1030.1
20260906085403 76 262 0.0 0.0 0.00 0.00 0.00 41 1030.1
20260906084904 76 262 0.0 0.0 0.00 0.00 0.00 41 1030.2
20260906084404 76 262 0.0 1.0 0.00 0.00 0.00 40 1030.2
20260906083904 76 262 0.0 1.0 0.00 0.00 0.00 40 1030.3
20260906083403 77 262 0.0 1.0 0.00 0.00 0.00 41 1030.4
20260906082903 77 262 1.0 2.0 0.00 0.00 0.00 40 1030.4
20260906082403 77 262 0.0 2.0 0.00 0.00 0.00 41 1030.4
20260906080904 77 262 0.0 0.0 0.00 0.00 0.00 40 1030.3
20260906080404 77 262 0.0 0.0 0.00 0.00 0.00 40 1030.2
20260906074903 77 262 0.0 0.0 0.00 0.00 0.00 40 1030.1
20260906074404 77 262 0.0 0.0 0.00 0.00 0.00 39 1030.1
20260906073904 78 262 0.0 0.0 0.00 0.00 0.00 39 1030.2
20260906073404 78 262 0.0 0.0 0.00 0.00 0.00 39 1030.2
20260906072904 78 262 0.0 1.0 0.00 0.00 0.00 38 1030.2
20260906072403 78 262 0.0 0.0 0.00 0.00 0.00 38 1030.2
20260906071903 78 262 1.0 2.0 0.00 0.00 0.00 38 1030.2
20260906071404 78 262 0.0 0.0 0.00 0.00 0.00 37 1030.1
20260906070903 78 262 0.0 0.0 0.00 0.00 0.00 37 1030.1
20260906065904 78 262 0.0 0.0 0.00 0.00 0.00 37 1029.9
20260906065404 78 262 0.0 0.0 0.00 0.00 0.00 37 1029.9
20260906064904 78 262 0.0 0.0 0.00 0.00 0.00 36 1030.0
20260906064403 78 262 0.0 0.0 0.00 0.00 0.00 36 1030.1
20260906062904 78 261 0.0 0.0 0.00 0.00 0.00 36 1030.2
20260906062404 78 261 0.0 0.0 0.00 0.00 0.00 37 1030.3
20260906061904 78 261 0.0 0.0 0.00 0.00 0.00 36 1030.3
20260906060403 79 261 1.0 2.0 0.00 0.00 0.00 36 1030.4
20260906055903 79 260 1.0 2.0 0.00 0.00 0.00 36 1030.4
20260906055405 79 259 2.0 3.0 0.00 0.00 0.00 36 1030.3
20260906054903 79 292 0.0 0.0 0.00 0.00 0.00 36 1030.2
20260906054404 80 292 0.0 0.0 0.00 0.00 0.00 36 1030.2
20260906053904 80 292 0.0 0.0 0.00 0.00 0.00 35 1030.2
20260906053404 80 297 0.0 0.0 0.00 0.00 0.00 35 1030.1
20260906052904 81 298 0.0 0.0 0.00 0.00 0.00 35 1030.1
20260906052403 81 298 0.0 0.0 0.00 0.00 0.00 35 1030.2
20260906051404 81 298 0.0 0.0 0.00 0.00 0.00 34 1030.1
20260906050903 81 298 0.0 0.0 0.00 0.00 0.00 34 1030.1
20260906050403 81 298 0.0 0.0 0.00 0.00 0.00 33 1030.2
20260906045903 82 298 0.0 0.0 0.00 0.00 0.00 33 1030.3
20260906045403 82 298 0.0 0.0 0.00 0.00 0.00 33 1030.3
20260906044904 82 298 0.0 0.0 0.00 0.00 0.00 33 1030.3
20260906044403 82 298 0.0 0.0 0.00 0.00 0.00 33 1030.3
20260906043903 82 298 0.0 0.0 0.00 0.00 0.00 33 1030.4
20260906043405 82 298 0.0 0.0 0.00 0.00 0.00 33 1030.3
20260906042903 82 298 0.0 0.0 0.00 0.00 0.00 33 1030.3
20260906042403 82 298 0.0 0.0 0.00 0.00 0.00 33 1030.2
20260906041403 82 227 1.0 3.0 0.00 0.00 0.00 33 1030.2
20260906040904 82 209 2.0 5.0 0.00 0.00 0.00 33 1030.2
20260906035904 83 180 3.0 6.0 0.00 0.00 0.00 33 1030.0
20260906035403 83 192 3.0 6.0 0.00 0.00 0.00 33 1030.0
20260906034903 83 175 2.0 3.0 0.00 0.00 0.00 34 1030.0
20260906033903 84 210 5.0 8.0 0.00 0.00 0.00 34 1030.0
20260906033403 84 207 4.0 6.0 0.00 0.00 0.00 34 1030.0
20260906032904 84 259 2.0 3.0 0.00 0.00 0.00 34 1030.0
20260906032403 84 218 3.0 6.0 0.00 0.00 0.00 34 1030.0
20260906031904 84 242 1.0 7.0 0.00 0.00 0.00 35 1030.0
20260906031403 85 232 2.0 3.0 0.00 0.00 0.00 35 1029.9
20260906030903 85 210 2.0 5.0 0.00 0.00 0.00 34 1029.8
20260906030403 85 214 3.0 7.0 0.00 0.00 0.00 34 1029.7
20260906025903 85 209 5.0 10.0 0.00 0.00 0.00 34 1029.7
20260906025403 85 206 5.0 12.0 0.00 0.00 0.00 34 1029.6
20260906024403 86 213 6.0 12.0 0.00 0.00 0.00 34 1029.5
20260906023404 87 206 6.0 13.0 0.00 0.00 0.00 33 1029.3
20260906022904 87 217 9.0 14.0 0.00 0.00 0.00 33 1029.4
20260906021403 88 224 7.0 12.0 0.00 0.00 0.00 33 1029.2
20260906020903 88 215 8.0 14.0 0.00 0.00 0.00 33 1029.2
20260906020403 88 223 9.0 14.0 0.00 0.00 0.00 32 1029.2
20260906015903 88 232 7.0 14.0 0.00 0.00 0.00 32 1029.1
20260906015403 89 222 6.0 14.0 0.00 0.00 0.00 31 1029.0
20260906014904 89 201 8.0 12.0 0.00 0.00 0.00 31 1029.0
20260906013403 90 201 6.0 12.0 0.00 0.00 0.00 30 1029.0
20260906012904 90 195 5.0 10.0 0.00 0.00 0.00 30 1029.0
20260906012404 90 196 5.0 10.0 0.00 0.00 0.00 30 1029.0
20260906011903 90 208 7.0 13.0 0.00 0.00 0.00 30 1029.0
20260906011404 90 203 5.0 10.0 0.00 0.00 0.00 30 1029.0
20260906010904 90 199 7.0 16.0 0.00 0.00 0.00 30 1029.0
20260906010404 90 207 10.0 15.0 0.00 0.00 0.00 29 1029.1
20260906005903 90 224 9.0 12.0 0.00 0.00 0.00 29 1029.1
20260906005403 90 210 10.0 16.0 0.00 0.00 0.00 29 1029.1
20260906004903 90 192 6.0 13.0 0.00 0.00 0.00 30 1029.0
20260906003903 91 208 5.0 13.0 0.00 0.00 0.00 30 1029.0
20260906003403 91 213 7.0 12.0 0.00 0.00 0.00 30 1029.0
20260906002903 91 201 6.0 12.0 0.00 0.00 0.00 30 1028.9
20260906002403 91 217 4.0 12.0 0.00 0.00 0.00 30 1028.9
20260906001903 91 206 5.0 12.0 0.00 0.00 0.00 29 1028.8
20260906001404 91 217 6.0 9.0 0.00 0.00 0.00 29 1028.8
20260906000903 91 180 8.0 16.0 0.00 0.00 0.00 29 1028.9
20260906000403 92 196 6.0 12.0 0.00 0.00 0.00 29 1028.9
20260905235903 92 186 4.0 13.0 0.00 0.00 0.00 29 1028.9
20260905235404 92 215 7.0 13.0 0.00 0.00 0.00 29 1028.8
20260905234904 92 174 5.0 9.0 0.00 0.00 0.00 28 1028.8
20260905234403 92 220 4.0 14.0 0.00 0.00 0.00 28 1028.9
20260905233904 92 200 5.0 12.0 0.00 0.00 0.00 28 1028.9
20260905233404 92 251 9.0 14.0 0.00 0.00 0.00 28 1028.9
20260905232904 92 169 5.0 10.0 0.00 0.00 0.00 28 1028.9
20260905232403 92 183 5.0 10.0 0.00 0.00 0.00 29 1029.0
20260905231904 92 201 5.0 12.0 0.00 0.00 0.00 28 1029.0
20260905231403 92 203 6.0 12.0 0.00 0.00 0.00 28 1029.0
20260905230904 92 166 5.0 12.0 0.00 0.00 0.00 29 1029.0
20260905230404 92 204 4.0 8.0 0.00 0.00 0.00 28 1029.0
20260905225403 92 239 7.0 10.0 0.00 0.00 0.00 26 1029.1
20260905224903 93 219 5.0 13.0 0.00 0.00 0.00 26 1029.0
20260905224404 93 211 3.0 13.0 0.00 0.00 0.00 26 1029.1
20260905223903 93 146 6.0 12.0 0.00 0.00 0.00 25 1029.2
20260905223403 93 208 5.0 10.0 0.00 0.00 0.00 26 1029.2
20260905222903 93 230 6.0 10.0 0.00 0.00 0.00 25 1029.2
20260905221904 93 161 3.0 9.0 0.00 0.00 0.00 25 1029.3
20260905221404 93 192 4.0 10.0 0.00 0.00 0.00 25 1029.4
20260905220904 93 191 6.0 8.0 0.00 0.00 0.00 24 1029.4
20260905215903 93 211 6.0 12.0 0.00 0.00 0.00 26 1029.5
20260905215404 93 199 4.0 12.0 0.00 0.00 0.00 26 1029.6
20260905214904 93 184 7.0 14.0 0.00 0.00 0.00 26 1029.7
20260905214403 93 215 5.0 12.0 0.00 0.00 0.00 24 1029.8
20260905213904 92 203 6.0 13.0 0.00 0.00 0.00 25 1029.9
20260905213403 92 226 5.0 12.0 0.00 0.00 0.00 26 1029.9
20260905212904 92 148 5.0 13.0 0.00 0.00 0.00 25 1030.0
20260905211903 92 184 5.0 10.0 0.00 0.00 0.00 27 1030.1
20260905211403 92 174 6.0 13.0 0.00 0.00 0.00 23 1030.2
20260905210903 92 188 6.0 13.0 0.00 0.00 0.00 24 1030.2
20260905210403 92 239 5.0 9.0 0.00 0.00 0.00 20 1030.3
20260905205403 93 161 6.0 12.0 0.00 0.00 0.00 20 1030.3
20260905204404 92 207 5.0 14.0 0.00 0.00 0.00 21 1030.5
20260905203903 92 236 8.0 13.0 0.00 0.00 0.00 23 1030.5
20260905203404 92 200 6.0 14.0 0.00 0.00 0.00 22 1030.5
20260905202405 91 236 4.0 12.0 0.00 0.00 0.00 19 1030.7
20260905201404 92 239 7.0 12.0 0.00 0.00 0.00 19 1030.9
20260905200904 92 227 7.0 12.0 0.00 0.00 0.00 19 1030.9
20260905195904 91 208 3.0 10.0 0.00 0.00 0.00 17 1031.0
20260905195404 91 206 5.0 13.0 0.00 0.00 0.00 16 1031.0
20260905194403 92 231 8.0 13.0 0.00 0.00 0.00 13 1031.1
20260905193403 92 211 5.0 10.0 0.00 0.00 0.00 15 1031.3
20260905191903 91 173 4.0 6.0 0.00 0.00 0.00 13 1031.6
20260905190903 90 212 4.0 9.0 0.00 0.00 0.00 13 1031.6
20260905190404 90 204 3.0 8.0 0.00 0.00 0.00 16 1031.7
20260905185903 90 323 1.0 3.0 0.00 0.00 0.00 17 1031.7
20260905184404 88 203 2.0 5.0 0.00 0.00 0.00 19 1031.9
20260905183904 87 215 2.0 3.0 0.00 0.00 0.00 18 1031.9